Regional Weather Roundup
Issued by NWS

Home | Current Version | Previous Version | Text Only | Print | Product List | Glossary Off
Versions: 1 2 3 4 5 6 7 8 9 10 11 12 13 14 15 16 17 18 19 20 21 22 23 24 25 26 27 28 29 30 31 32 33 34 35 36 37 38 39 40 41 42 43 44 45 46 47 48 49 50

000
ASUS43 KBIS 240002
RWRND

NORTH DAKOTA REGIONAL WEATHER ROUNDUP
NATIONAL WEATHER SERVICE BISMARCK ND
600 PM CST MON JAN 23 2017

NOTE: "FAIR" INDICATES FEW OR NO CLOUDS BELOW 12,000 FEET WITH NO
SIGNIFICANT WEATHER AND/OR OBSTRUCTIONS TO VISIBILITY.


NDZ001>003-009>011-017-240100-
NORTHWEST NORTH DAKOTA

CITY           SKY/WX    TMP DP  RH WIND       PRES   REMARKS
WILLISTON      LGT SNOW  21  18  88 NW6       29.81R FOG     WCI  13
6HR MIN TEMP:  21; 6HR MAX TEMP:  25; 6HR PCP: TRACE;

MINOT          CLOUDY    24  18  77 NW12      29.78R WCI  13
$$

NDZ018>021-031>035-040>046-240100-
SOUTHWEST NORTH DAKOTA

CITY           SKY/WX    TMP DP  RH WIND       PRES   REMARKS
BISMARCK       CLOUDY    31  23  72 CALM      29.80R
6HR MIN TEMP:  30; 6HR MAX TEMP:  33;

DICKINSON      CLOUDY    23  20  88 N3        29.74R
GARRISON         N/A     24  20  84 N10       29.78R WCI  14
6HR MIN TEMP:  24; 6HR MAX TEMP:  29;

HETTINGER ARPT CLOUDY    21  19  92 N7        29.75R FOG     WCI  12
$$

NDZ004>008-012>016-024-026-027-054-240100-
NORTHEAST NORTH DAKOTA

CITY           SKY/WX    TMP DP  RH WIND       PRES   REMARKS
GRAND FORKS    CLOUDY    31  24  75 W6        29.81S
DEVILS LAKE    CLOUDY    23  19  85 W14       29.79R WCI  11
$$

NDZ022-023-025-028>030-036>039-047>053-240100-
SOUTHEAST NORTH DAKOTA

CITY           SKY/WX    TMP DP  RH WIND       PRES   REMARKS
FARGO          CLOUDY    33  28  81 NW3       29.83S
6HR MIN TEMP:  33; 6HR MAX TEMP:  36;

JAMESTOWN      CLOUDY    28  23  81 SW3       29.79S
$$





USA.gov is the U.S. government's official web portal to all federal, state and local government web resources and services.